Location: Passau
(48.5830°N, 13.4830°E)
Time: 20:30:51
(UTC+02:00)

S-56A Canister/Altair - Pass Details

Date: 21 May 2024
Orbit: 637 x 2489 km, 38.9° (Epoch: 15 June)

Event Time Altitude Azimuth Distance (km) Brightness Sun altitude
Rises 09:47:53 0° 252° (WSW) 5,325 11.5 42.0°
Reaches altitude 10° 09:52:01 10° 247° (WSW) 4,035 11.0 42.7°
Maximum altitude 10:01:13 42° 182° (S) 1,752 10.1 44.1°
Drops below altitude 10° 10:07:29 10° 113° (ESE) 2,758 11.4 45.1°
Sets 10:09:49 0° 106° (ESE) 3,517 11.7 45.4°
